N11SU RKSS-RKTU

Flight info

Callsign N11SU
Flight time 0h 14m
Altitude 21000
Route OSPOT2Q OSPOT MATIZ1
Aircraft E55P/M-SBDFGHJ2RWY/LB2

Departure

Time 2026-04-22 03:11
Airport Gimpo International Airport (RKSS)

Arrival

Time 2026-04-22 03:26
Airport Cheongju International Airport/Cheongju Air Base (K-59/G-513) (RKTU)
Time Latitude Longitude Altitude Speed Heading
2026-04-22 02:49 37.57026 126.80139 46 ft 0 kts 46°
2026-04-22 03:00 37.57023 126.80148 46 ft 2 kts 187°
2026-04-22 03:00 37.57004 126.80128 47 ft 3 kts 211°
2026-04-22 03:01 37.56987 126.80114 47 ft 2 kts 219°
2026-04-22 03:01 37.56976 126.80100 47 ft 2 kts 228°
2026-04-22 03:01 37.56966 126.80087 48 ft 1 kts 212°
2026-04-22 03:01 37.56957 126.80086 48 ft 0 kts 165°
2026-04-22 03:02 37.56955 126.80087 48 ft 0 kts 141°
2026-04-22 03:03 37.56955 126.80088 48 ft 0 kts 141°
2026-04-22 03:03 37.56916 126.80135 48 ft 12 kts 135°
2026-04-22 03:04 37.56843 126.80093 50 ft 17 kts 218°
2026-04-22 03:04 37.56743 126.79970 52 ft 22 kts 226°
2026-04-22 03:04 37.56625 126.79821 54 ft 23 kts 227°
2026-04-22 03:04 37.56512 126.79679 56 ft 21 kts 226°
2026-04-22 03:05 37.56403 126.79542 57 ft 21 kts 224°
2026-04-22 03:05 37.56305 126.79419 60 ft 18 kts 225°
2026-04-22 03:05 37.56213 126.79304 62 ft 18 kts 224°
2026-04-22 03:05 37.56115 126.79324 63 ft 16 kts 135°
2026-04-22 03:06 37.56028 126.79433 65 ft 20 kts 136°
2026-04-22 03:06 37.55920 126.79569 66 ft 24 kts 135°
2026-04-22 03:06 37.55792 126.79730 66 ft 27 kts 143°
2026-04-22 03:06 37.55654 126.79903 63 ft 27 kts 133°
2026-04-22 03:07 37.55513 126.80079 59 ft 29 kts 134°
2026-04-22 03:07 37.55367 126.80261 55 ft 29 kts 134°
2026-04-22 03:07 37.55219 126.80448 51 ft 28 kts 135°
2026-04-22 03:07 37.55092 126.80607 50 ft 25 kts 136°
2026-04-22 03:08 37.54969 126.80762 50 ft 24 kts 135°
2026-04-22 03:08 37.54868 126.80801 50 ft 13 kts 226°
2026-04-22 03:08 37.54857 126.80787 50 ft 0 kts 225°
2026-04-22 03:08 37.54840 126.80765 50 ft 8 kts 226°
2026-04-22 03:09 37.54808 126.80678 50 ft 12 kts 287°
2026-04-22 03:09 37.54824 126.80649 50 ft 0 kts 314°
2026-04-22 03:10 37.54830 126.80641 50 ft 13 kts 314°
2026-04-22 03:10 37.55140 126.80253 53 ft 108 kts 314°
2026-04-22 03:11 37.55835 126.79379 232 ft 162 kts 314°
2026-04-22 03:11 37.56700 126.78329 592 ft 189 kts 312°
2026-04-22 03:11 37.57681 126.77024 1425 ft 209 kts 311°
2026-04-22 03:11 37.58624 126.75761 2769 ft 202 kts 311°
2026-04-22 03:12 37.59550 126.74506 3998 ft 200 kts 310°
2026-04-22 03:12 37.61448 126.71936 6210 ft 207 kts 311°
2026-04-22 03:12 37.62413 126.70596 7324 ft 209 kts 304°
2026-04-22 03:13 37.62750 126.68869 8332 ft 215 kts 263°
2026-04-22 03:13 37.62014 126.67233 9332 ft 227 kts 226°
2026-04-22 03:13 37.60883 126.65807 10319 ft 239 kts 231°
2026-04-22 03:13 37.59702 126.64211 11462 ft 264 kts 229°
2026-04-22 03:14 37.58084 126.63066 12952 ft 281 kts 193°
2026-04-22 03:14 37.56119 126.63242 14444 ft 290 kts 163°
2026-04-22 03:14 37.54357 126.64481 15805 ft 299 kts 147°
2026-04-22 03:14 37.52694 126.66051 17014 ft 308 kts 145°
2026-04-22 03:15 37.51003 126.67741 18138 ft 318 kts 146°
2026-04-22 03:15 37.49253 126.69508 19271 ft 325 kts 147°
2026-04-22 03:15 37.47488 126.71287 20438 ft 329 kts 148°
2026-04-22 03:15 37.45622 126.73164 20889 ft 360 kts 148°
2026-04-22 03:16 37.43622 126.75173 20943 ft 370 kts 148°
2026-04-22 03:16 37.41582 126.77232 20955 ft 372 kts 148°
2026-04-22 03:16 37.39544 126.79283 20949 ft 375 kts 148°
2026-04-22 03:16 37.37466 126.81374 20936 ft 398 kts 148°
2026-04-22 03:17 37.35209 126.83640 20967 ft 431 kts 147°
2026-04-22 03:17 37.32813 126.86060 21057 ft 442 kts 147°
2026-04-22 03:17 37.30382 126.88496 21063 ft 448 kts 147°
2026-04-22 03:17 37.27924 126.90968 21067 ft 453 kts 147°
2026-04-22 03:18 37.25412 126.93488 21074 ft 457 kts 147°
2026-04-22 03:18 37.22890 126.96008 21072 ft 461 kts 147°
2026-04-22 03:18 37.20419 126.98490 21061 ft 455 kts 147°
2026-04-22 03:18 37.17964 127.00942 21059 ft 456 kts 147°
2026-04-22 03:19 37.15424 127.03476 21085 ft 462 kts 147°
2026-04-22 03:19 37.12939 127.05962 21056 ft 451 kts 147°
2026-04-22 03:19 37.10508 127.08386 21065 ft 442 kts 148°
2026-04-22 03:19 37.08091 127.10796 21060 ft 435 kts 148°
2026-04-22 03:20 37.05723 127.13149 21058 ft 427 kts 149°
2026-04-22 03:20 37.03417 127.15469 21041 ft 430 kts 139°
2026-04-22 03:20 37.01750 127.18645 21101 ft 432 kts 126°
2026-04-22 03:20 36.99949 127.21616 20951 ft 434 kts 132°
2026-04-22 03:21 36.98096 127.24751 20519 ft 444 kts 133°
2026-04-22 03:21 36.96246 127.27822 20021 ft 454 kts 131°
2026-04-22 03:21 36.94323 127.30994 19577 ft 458 kts 131°
2026-04-22 03:21 36.92401 127.34172 19120 ft 458 kts 131°
2026-04-22 03:22 36.90478 127.37363 18648 ft 458 kts 131°
2026-04-22 03:22 36.88546 127.40546 18165 ft 457 kts 130°
2026-04-22 03:22 36.86638 127.43707 17695 ft 440 kts 131°
2026-04-22 03:22 36.84849 127.46647 17210 ft 412 kts 130°
2026-04-22 03:23 36.83168 127.49412 16732 ft 390 kts 129°
2026-04-22 03:23 36.81555 127.52041 16143 ft 376 kts 123°
2026-04-22 03:23 36.80206 127.54766 15415 ft 364 kts 133°
2026-04-22 03:23 36.78360 127.56853 14709 ft 353 kts 133°
2026-04-22 03:24 36.76787 127.59147 13836 ft 349 kts 138°
2026-04-22 03:24 36.75070 127.59141 12572 ft 300 kts 248°
2026-04-22 03:24 36.74507 127.56821 7918 ft 389 kts 259°
2026-04-22 03:24 36.73903 127.53869 2340 ft 412 kts 251°
2026-04-22 03:25 36.72700 127.51251 293 ft 309 kts 232°
2026-04-22 03:25 36.71539 127.49602 298 ft 212 kts 223°
2026-04-22 03:25 36.71425 127.50382 433 ft 174 kts 43°
2026-04-22 03:25 36.72290 127.51093 448 ft 126 kts 345°
2026-04-22 03:26 36.72497 127.50885 171 ft 0 kts 254°